Погода в Каджаране

Армения     39°09′04″N   46°09′23″E
темп.,
°C
ветер,
м/с
пор.,
м/с
влажн.,
%
обл.,
%
осадки,
мм/ч
давл.,
гПа
погр.,
м
20 апреля, вт
вт2001:00+11з4452100 0.0 101947
04:00+11зюз4452100 0.0 101852
07:00+12зюз4347100 0.0 101736
10:00+18юз283292 0.0 10151646
13:00+20зюз51227100 0.0 10142837
16:00+19зюз373410 0.0 10132170
19:00+13юз566498 1.7 1016414
22:00+12зюз445782 2.6 101639
21 апреля, ср
ср2101:00+11зюз44532 0.0 101637
04:00+11зюз44520 0.0 101644
07:00+11зюз44557 0.0 101642
10:00+19ююз383361 0.0 10152077
13:00+21юз3828100 0.0 10133051
16:00+12зюз4568100 1.8 1016192
19:00+12зюз3472100 3.0 1017139
22:00+11зюз326872 3.3 101819
22 апреля, чт
чт2201:00+11зюз326389 0.1 101716
04:00+10юз226139 0.1 101713
07:00+10зюз225854 0.0 101816
10:00+16ююв274565 0.0 10161588
13:00+18юв394020 0.0 10152615
16:00+15вюв355976 0.6 1015929
19:00+9в329495 1.5 1018229
22:00+9ююз118619 2.1 101978
23 апреля, пт
пт2301:00+9зюз11725 0.1 101711
04:00+8юз11731 0.1 101613
07:00+8ююз117725 0.0 101741
10:00+11вюв337250 0.0 1017796
13:00+11в347454 0.1 1018875
16:00+10в347653 0.1 1018773
19:00+6в229282 0.1 1021266
22:00+5в229698 0.1 1023247
24 апреля, сб
сб2401:00+5в119375 0.1 1023248
04:00+5в119044 0.1 1022166
07:00+5в228964 0.0 1023316
10:00+8в217463 0.0 1022567
13:00+11в426851 0.0 1020763
16:00+12в326729 0.0 1019684
19:00+9вюв228231 0.0 1020179
22:00+7зюз1176100 0.0 102010